CAPE
0 0 0 0 0 0 0 0 0 0 0 0 0 0 0 0 0 0 0 0 2 0 27 35 9 0 0 0 0 18 19 19 8 0 0 0 0 0 0 0 0 0 9 6 13 4 0 0 0
0 0 0 0 0 0 0 0 0 0 0 0 0 0 0 0 0 0 0 0 0 0 0 6 0 0 0 0 0 2 36 23 18 1 0 0 0 0 0 0 0 1 7 6 5 6 0 0 0
0 0 0 0 0 0 0 0 0 0 0 0 0 0 0 0 0 0 0 3 0 0 0 0 0 0 0 0 0 0 20 7 0 0 0 1 0 0 0 0 1 6 3 1 1 20 2 0 0
0 0 0 0 0 0 0 0 0 0 0 0 0 0 0 0 0 0 0 10 0 11 0 0 0 0 0 0 0 0 0 0 0 0 0 0 0 0 0 0 2 0 2 0 0 0 18 6 0
0 0 0 0 0 0 0 0 0 0 0 0 0 0 0 0 0 0 0 0 0 0 0 0 0 0 0 0 0 0 16 1 0 4 3 0 0 0 0 0 0 0 0 0 0 0 0 7 0
0 0 0 0 0 0 0 0 0 0 0 0 0 0 0 0 0 4 1 0 0 0 0 0 0 0 0 0 0 0 9 0 0 17 24 6 0 0 0 0 0 0 0 0 0 0 0 0 0
0 0 0 0 0 0 0 0 0 0 0 0 0 0 0 0 0 26 3 0 0 0 0 0 0 0 0 0 0 0 0 0 0 0 22 10 0 0 0 0 0 0 0 0 0 0 0 0 0
0 0 0 0 0 0 0 0 0 0 0 0 0 0 0 0 0 6 0 0 0 0 0 0 0 0 0 0 0 0 0 0 0 0 11 3 0 0 0 0 0 0 0 0 0 0 0 0 0
0 0 0 0 0 0 0 0 0 0 0 0 0 0 0 0 0 16 23 0 0 0 0 0 0 0 0 0 0 0 0 0 0 0 0 0 0 0 0 0 0 0 0 0 0 0 0 0 0
0 0 0 0 0 0 0 0 0 0 0 0 0 0 0 0 0 0 0 0 0 0 0 0 0 0 0 0 0 0 0 0 0 0 0 0 0 0 0 0 0 0 0 0 0 0 0 0 0
0 0 0 0 0 0 0 0 0 0 0 0 0 0 0 0 0 0 0 0 0 0 0 0 0 0 0 0 0 0 0 0 0 0 0 0 0 0 0 0 0 0 0 0 0 0 0 0 0
0 0 0 0 0 0 0 0 0 0 0 0 0 0 0 0 0 0 0 0 0 0 0 0 0 0 0 0 0 0 0 0 0 0 0 0 0 0 0 0 0 0 0 0 0 0 0 0 0
0 0 0 0 0 0 0 0 0 0 0 0 0 0 0 0 0 0 0 0 0 0 0 0 0 0 0 0 0 0 0 0 0 0 0 0 0 0 0 0 0 0 0 0 0 0 0 0 0
0 0 0 0 0 0 0 0 0 0 0 0 0 0 0 0 0 0 0 0 0 0 0 0 0 0 0 0 0 0 0 0 0 0 0 0 0 0 0 0 0 0 0 0 0 0 0 0 0
0 0 0 0 0 0 0 0 0 0 0 0 0 0 0 0 0 0 0 0 0 0 0 0 0 0 0 0 0 0 0 0 0 0 0 0 0 0 0 0 0 0 0 0 0 0 0 0 0
0 0 0 0 0 0 0 0 0 0 0 0 0 0 0 0 0 0 0 0 0 0 0 0 0 0 0 0 0 0 0 0 0 0 0 0 0 0 0 0 0 0 0 0 0 0 0 0 0
0 0 0 0 0 0 0 0 0 0 0 0 0 0 0 0 0 0 0 0 0 0 0 0 0 0 0 0 0 0 0 0 0 0 0 0 0 0 0 0 0 0 0 0 0 0 0 0 0
0 0 0 0 0 0 0 0 0 0 0 0 0 0 0 0 0 0 0 0 0 0 0 0 0 0 0 0 0 0 0 0 0 0 0 0 0 0 0 0 0 0 15 1 2 3 0 1 0
0 0 0 0 0 0 0 0 0 0 0 0 0 0 0 0 0 0 0 0 0 0 0 0 0 0 0 0 0 0 0 0 0 0 0 0 0 0 0 0 0 0 4 21 18 9 14 12 2
0 0 0 0 0 0 0 0 0 0 0 0 0 0 0 0 0 0 0 0 0 0 0 0 0 0 0 0 0 0 0 0 0 0 0 0 0 0 0 0 1 3 14 38 49 44 33 30 19
0 0 0 0 0 0 0 0 0 0 0 0 0 0 0 0 0 0 0 0 0 0 0 0 0 0 0 0 0 0 0 0 0 0 0 0 0 0 0 0 1 19 28 44 57 36 36 26 28
0 0 0 0 0 0 0 0 0 0 0 0 0 0 0 0 0 0 0 0 0 0 0 0 0 0 0 0 0 0 0 0 0 0 0 0 0 0 0 0 0 4 32 58 27 27 52 49 51
0 0 0 0 0 0 0 0 0 0 0 0 0 0 0 0 0 0 0 0 0 0 0 0 0 0 0 0 0 0 0 0 0 0 0 0 0 0 0 0 0 0 2 0 11 20 32 51 59
0 0 0 0 0 0 0 0 0 0 0 0 0 0 0 0 0 0 0 0 0 0 0 0 0 0 0 0 0 0 0 0 0 0 0 0 0 0 0 0 0 0 0 0 0 0 0 4 2
1 0 0 0 0 0 0 0 0 0 0 0 0 0 0 0 0 0 0 0 0 0 0 0 0 0 0 0 0 0 0 0 0 0 0 0 0 0 0 0 0 0 0 0 0 0 0 0 0
1 0 0 0 0 0 0 0 0 0 0 0 0 0 0 0 0 0 0 0 0 0 0 0 0 0 0 0 0 0 0 0 0 0 0 0 0 0 0 0 0 0 0 0 0 0 0 0 0
0 8 0 0 0 0 0 0 0 0 0 0 0 0 0 0 0 0 0 0 0 0 0 0 0 0 0 0 0 0 0 0 0 0 0 0 0 0 0 0 0 0 0 0 0 0 0 0 0
0 0 0 5 0 0 0 0 0 0 0 0 0 0 0 0 0 0 0 0 0 0 0 0 0 0 0 0 0 0 0 0 0 0 0 0 0 0 0 0 0 0 0 0 0 0 0 0 0
0 4 10 0 0 0 0 0 0 0 0 0 0 0 0 0 0 0 0 0 0 0 0 0 0 0 0 0 0 0 0 0 0 0 0 0 0 0 0 0 0 0 0 0 0 0 0 0 0
0 0 15 1 0 0 0 0 0 0 0 0 0 0 0 0 0 0 0 0 0 0 0 0 0 0 0 0 0 0 0 0 0 0 0 0 0 0 0 0 0 0 0 0 0 0 0 0 0
CIN
0 0 0 0 0 0 0 0 0 0 0 0 0 0 0 0 0 0 0 0 -20 0 -93 -54 -37 0 0 0 0 -34 0 -1 -2 0 0 0 0 0 0 0 0 0 0 -1 -1 0 0 0 0
0 0 0 0 0 0 0 0 0 0 0 0 0 0 0 0 0 0 0 0 0 0 0 -17 0 0 0 0 0 -1 -67 0 0 0 0 0 0 0 0 0 0 0 0 0 0 0 0 0 0
0 0 0 0 0 0 0 0 0 0 0 0 0 0 0 0 0 0 0 -112 0 0 0 0 0 0 0 0 0 0 -17 0 0 0 0 0 0 0 0 0 0 0 0 0 0 0 -7 0 0
0 0 0 0 0 0 0 0 0 0 0 0 0 0 0 0 0 0 0 -164 0 -52 0 0 0 0 0 0 0 0 0 0 0 0 0 0 0 0 0 0 0 0 0 0 0 -3 -3 -6 0
0 0 0 0 0 0 0 0 0 0 0 0 0 0 0 0 0 0 0 0 0 0 0 0 0 0 0 0 0 0 -20 0 0 0 0 0 0 0 0 0 0 0 0 0 0 0 -1 -2 0
0 0 0 0 0 0 0 0 0 0 0 0 0 0 0 0 0 -137 -25 0 0 0 0 0 0 0 0 0 0 0 0 0 0 0 -1 -3 0 0 0 0 0 0 0 0 0 0 0 0 0
0 0 0 0 0 0 0 0 0 0 0 0 0 0 0 0 0 -184 -62 0 0 0 0 0 0 0 0 0 0 0 0 0 0 -1 -3 -5 0 0 0 0 0 0 0 0 0 0 0 0 0
0 0 0 0 0 0 0 0 0 0 0 0 0 0 0 0 0 -121 0 0 0 0 0 0 0 0 0 0 0 0 0 0 0 0 -5 -7 0 0 0 0 0 0 0 0 0 0 0 0 0
0 0 0 0 0 0 0 0 0 0 0 0 0 0 0 0 0 -244 -205 0 0 0 0 0 0 0 0 0 0 0 0 0 0 0 0 0 0 0 0 0 0 0 0 0 0 0 0 0 0
0 0 0 0 0 0 0 0 0 0 0 0 0 0 0 0 0 0 0 0 0 0 0 0 0 0 0 0 0 0 0 0 0 0 0 0 0 0 0 0 0 0 0 0 0 0 0 0 0
0 0 0 0 0 0 0 0 0 0 0 0 0 0 0 0 0 0 0 0 0 0 0 0 0 0 0 0 0 0 0 0 0 0 0 0 0 0 0 0 0 0 0 0 0 0 0 0 0
0 0 0 0 0 0 0 0 0 0 0 0 0 0 0 0 0 0 0 0 0 0 0 0 0 0 0 0 0 0 0 0 0 0 0 0 0 0 0 0 0 0 0 0 0 0 0 0 0
0 0 0 0 0 0 0 0 0 0 0 0 0 0 0 0 0 0 0 0 0 0 0 0 0 0 0 0 0 0 0 0 0 0 0 0 0 0 0 0 0 0 0 0 0 0 0 0 0
0 0 0 0 0 0 0 0 0 0 0 0 0 0 0 0 0 0 0 0 0 0 0 0 0 0 0 0 0 0 0 0 0 0 0 0 0 0 0 0 0 0 0 0 0 0 0 0 0
0 0 0 0 0 0 0 0 0 0 0 0 0 0 0 0 0 0 0 0 0 0 0 0 0 0 0 0 0 0 0 0 0 0 0 0 0 0 0 0 0 0 0 0 0 0 0 0 0
0 0 0 0 0 0 0 0 0 0 0 0 0 0 0 0 0 0 0 0 0 0 0 0 0 0 0 0 0 0 0 0 0 0 0 0 0 0 0 0 0 0 0 0 0 0 0 0 0
0 0 0 0 0 0 0 0 0 0 0 0 0 0 0 0 0 0 0 0 0 0 0 0 0 0 0 0 0 0 0 0 0 0 0 0 0 0 0 0 0 0 0 -12 0 0 0 0 0
0 0 0 0 0 0 0 0 0 0 0 0 0 0 0 0 0 0 0 0 0 0 0 0 0 0 0 0 0 0 0 0 0 0 0 0 0 0 0 0 0 0 -50 -23 -47 -36 -15 -45 -20
0 0 0 0 0 0 0 0 0 0 0 0 0 0 0 0 0 0 0 0 0 0 0 0 0 0 0 0 0 0 0 0 0 0 0 0 0 0 0 0 0 0 -50 -44 -51 -40 -34 -39 -60
0 0 0 0 0 0 0 0 0 0 0 0 0 0 0 0 0 0 0 0 0 0 0 0 0 0 0 0 0 0 0 0 0 0 0 0 0 0 0 0 -5 -9 -35 -37 -34 -35 -31 -30 -56
0 0 0 0 0 0 0 0 0 0 0 0 0 0 0 0 0 0 0 0 0 0 0 0 0 0 0 0 0 0 0 0 0 0 0 0 0 -1 0 0 -6 -25 -28 -21 -25 -32 -36 -28 -48
0 0 0 0 0 0 0 0 0 0 0 0 0 0 0 0 0 0 0 0 0 0 0 0 0 0 0 0 0 0 0 0 0 0 0 0 0 0 0 0 0 -41 -39 -31 -49 -50 -38 -30 -17
0 0 0 0 0 0 0 0 0 0 0 0 0 0 0 0 0 0 0 0 0 0 0 0 0 0 0 0 0 0 0 0 0 0 0 0 0 0 0 0 0 0 -120 0 -103 -97 -64 -37 -20
0 0 0 0 0 0 0 0 0 0 0 0 0 0 0 0 0 0 0 0 0 0 0 0 0 0 0 0 0 0 0 0 0 0 0 0 0 0 0 0 0 0 0 0 0 0 0 -82 -65
-3 0 0 0 0 0 0 0 0 0 0 0 0 0 0 0 0 0 0 0 0 0 0 0 0 0 0 0 0 0 0 0 0 0 0 0 0 0 0 0 0 0 0 0 0 0 0 0 0
-1 0 0 0 0 0 0 0 0 0 0 0 0 0 0 0 0 0 0 0 0 0 0 0 0 0 0 0 0 0 0 0 0 0 0 0 0 0 0 0 0 0 0 0 0 0 0 0 0
0 -1 0 0 0 0 0 0 0 0 0 0 0 0 0 0 0 0 0 0 0 0 0 0 0 0 0 0 0 0 0 0 0 0 0 0 0 0 0 0 0 0 0 0 0 0 0 0 0
0 0 0 -3 0 0 0 0 0 0 0 0 0 0 0 0 0 0 0 0 0 0 0 0 0 0 0 0 0 0 0 0 0 0 0 0 0 0 0 0 0 0 0 0 0 0 0 0 0
0 -1 -5 -2 0 0 0 0 0 0 0 0 0 0 0 0 0 0 0 0 0 0 0 0 0 0 0 0 0 0 0 0 0 0 0 0 0 0 0 0 0 0 0 0 0 0 0 0 0
0 0 -25 -2 0 0 0 0 0 0 0 0 0 0 0 0 0 0 0 0 0 0 0 0 0 0 0 0 0 0 0 0 0 0 0 0 0 0 0 0 0 0 0 0 0 0 0 0 0
Wind_Speed
19 14 10 12 11 13 11 11 11 11 12 12 11 11 12 11 12 9 20 23 22 24 23 22 21 21 21 14 13 22 23 23 22 22 21 20 20 20 19 19 17 18 18 18 19 20 20 21 22
17 12 13 12 11 10 11 10 9 12 13 13 11 11 12 13 15 13 2 22 22 23 24 22 22 22 22 22 15 9 22 19 19 18 17 18 17 16 15 15 16 16 17 17 18 17 19 20 21
13 14 13 10 11 9 8 8 9 9 11 12 13 12 12 11 13 5 19 20 21 22 23 22 22 21 21 22 22 20 17 13 12 13 14 14 13 13 13 14 15 15 16 17 18 17 17 19 19
14 14 13 11 11 10 8 7 7 9 12 12 12 12 12 12 9 15 17 19 19 21 21 20 20 20 21 21 21 22 21 19 16 14 15 16 15 15 14 14 14 15 16 16 17 18 16 17 18
14 14 13 11 12 9 7 5 7 8 10 11 12 11 11 11 10 12 17 17 17 18 19 19 19 19 19 19 20 20 19 18 17 16 15 15 14 14 14 14 14 14 14 15 16 16 16 17 17
15 14 14 11 9 9 7 5 6 9 10 10 11 11 11 11 9 13 14 15 15 15 15 17 17 15 16 18 18 19 18 18 17 17 15 14 13 13 13 13 13 13 13 13 13 14 13 14 15
16 17 14 10 6 7 7 6 5 7 8 11 10 11 10 9 10 14 12 11 11 11 11 10 9 9 11 11 7 16 17 18 18 18 11 11 11 11 10 11 11 12 12 12 11 12 12 12 12
16 16 13 14 8 11 9 10 7 7 11 9 11 10 9 7 12 11 10 9 9 9 10 11 10 9 10 10 10 11 11 12 11 11 10 10 10 10 9 9 8 8 9 9 10 10 11 11 11
16 17 16 15 12 11 10 10 10 11 8 11 12 10 9 11 11 10 8 8 8 9 11 10 10 9 9 9 9 10 10 10 10 10 9 8 8 8 7 7 6 6 6 6 7 8 9 10 11
16 16 16 17 16 12 10 11 7 11 10 14 11 11 6 9 9 9 8 8 8 9 10 9 9 9 8 8 9 9 9 9 9 8 7 7 6 6 5 4 4 3 4 4 6 7 7 9 10
16 17 16 16 16 15 12 13 14 9 14 14 9 6 3 4 5 6 6 5 8 7 5 7 7 7 6 6 7 7 7 7 6 6 5 5 4 4 4 5 4 4 4 5 7 9 10 10 11
17 15 17 16 16 15 14 14 16 14 17 17 11 3 2 2 2 3 3 3 3 3 4 4 4 3 3 3 4 4 4 4 4 3 3 4 3 3 3 4 4 5 5 6 7 9 10 11 11
21 18 17 16 14 14 15 16 18 21 20 17 11 9 4 5 5 6 10 16 15 9 4 1 2 1 1 1 3 5 5 5 4 4 3 4 4 4 4 5 6 7 7 7 8 10 11 12 13
19 19 19 19 17 17 17 19 19 21 20 18 14 13 11 10 8 14 16 15 14 14 15 9 7 3 4 5 5 6 8 6 7 8 6 5 7 8 8 9 9 10 9 10 11 12 13 14 16
22 22 23 22 22 22 20 24 25 22 21 21 20 19 19 16 19 16 16 18 15 16 21 21 15 12 10 8 9 11 12 13 12 13 12 11 9 9 10 10 11 12 12 12 13 14 15 16 17
25 24 29 23 23 24 23 34 33 27 26 28 26 24 25 24 22 25 26 26 25 23 23 25 23 17 14 14 15 17 18 17 18 18 16 14 12 11 12 12 12 12 12 13 14 15 17 17 17
26 31 30 30 25 25 25 34 35 29 29 33 33 31 31 32 32 31 30 26 22 23 24 23 21 19 19 19 22 24 25 23 22 21 20 18 16 14 14 14 14 14 14 14 14 14 15 16 17
33 31 31 32 27 29 31 37 39 31 29 33 35 36 37 37 38 37 33 28 28 25 21 20 20 20 20 22 23 25 27 26 25 24 23 23 21 18 17 17 16 15 15 15 15 14 14 15 16
32 33 34 32 30 32 35 39 45 39 37 41 42 42 40 39 38 35 34 29 27 26 24 23 21 22 23 24 26 29 30 30 30 30 30 28 25 22 20 20 19 18 18 17 16 17 17 17 16
35 37 37 35 32 33 39 46 44 45 42 42 44 44 43 40 38 34 31 28 26 25 23 23 24 24 25 26 27 29 31 32 32 32 31 30 28 25 23 22 21 20 20 19 19 19 22 20 17
39 41 37 37 35 34 40 51 47 45 42 42 43 44 43 40 39 37 34 31 28 26 23 22 23 25 26 28 30 32 33 34 34 32 29 29 28 26 25 24 23 23 21 22 22 21 21 23 21
42 33 35 37 38 46 33 58 45 43 46 42 42 43 43 41 39 38 36 32 29 28 24 23 23 25 26 29 31 32 33 34 31 30 29 28 27 26 25 24 24 24 23 24 22 23 22 21 23
35 27 31 34 39 43 44 48 46 36 42 43 41 41 40 38 37 37 35 33 30 25 25 24 24 25 27 28 29 31 31 29 29 28 28 27 26 25 24 24 24 24 23 24 24 23 22 20 20
26 27 28 30 34 50 44 43 51 42 39 38 35 32 32 33 33 34 33 30 27 22 22 21 22 24 25 28 28 27 29 28 28 28 28 27 25 25 25 24 24 24 23 22 22 22 22 21 20
28 29 40 44 43 51 36 40 55 39 35 33 37 39 37 35 34 33 31 28 23 22 21 20 21 24 24 25 26 27 28 28 28 27 27 27 26 26 25 25 24 23 22 21 20 20 21 21 21
28 29 38 48 48 48 36 47 44 34 35 37 37 37 36 35 34 32 29 25 22 20 20 20 21 23 24 26 27 27 27 27 27 26 26 26 27 27 25 24 23 24 23 22 21 21 21 20 19
27 36 28 35 36 44 41 41 42 40 40 38 37 34 34 35 32 29 27 25 22 21 21 22 23 24 25 26 27 27 27 27 27 27 26 26 26 26 25 24 24 23 22 21 20 19 18 16 16
25 21 30 33 44 52 48 48 47 40 38 38 35 33 32 31 30 28 26 24 22 22 23 24 25 27 28 28 27 27 27 27 27 27 27 27 26 26 25 25 24 23 21 19 17 16 15 15 16
27 29 28 29 34 43 50 45 28 29 28 29 30 32 32 31 30 29 28 26 26 25 26 27 28 29 29 28 27 27 28 28 28 28 27 27 26 25 25 23 22 21 19 17 16 16 15 15 16
31 32 30 35 36 35 44 57 31 31 33 35 34 31 30 29 29 30 32 32 31 29 29 31 31 31 30 29 30 31 30 29 29 29 27 26 25 24 23 21 20 19 18 17 17 17 16 16 15
Wind_Direction
288 283 283 286 330 351 13 358 312 13 340 307 332 21 54 280 234 113 187 129 115 118 121 113 105 103 98 205 226 157 127 118 115 122 130 140 136 138 132 85 43 42 46 44 48 45 39 35 32
287 289 277 302 328 332 352 339 15 322 48 32 351 322 323 302 236 238 59 137 114 119 126 118 117 115 120 129 195 229 125 94 82 81 86 90 66 51 53 50 48 44 39 30 24 50 43 41 36
292 281 286 316 320 325 359 358 11 25 34 331 351 313 311 307 256 8 194 110 111 117 124 120 120 123 129 143 157 123 95 54 24 22 37 30 22 26 17 33 58 44 37 29 18 51 53 43 37
283 281 292 307 302 319 342 45 10 42 306 332 1 345 312 283 306 237 94 104 107 117 118 116 115 119 128 136 151 149 140 127 91 66 59 73 59 52 47 35 42 36 43 38 33 20 42 39 33
284 284 285 293 294 313 317 28 43 7 345 347 338 351 316 307 318 56 94 96 101 109 114 115 116 115 121 132 136 148 126 123 123 112 94 78 72 63 61 64 56 48 39 33 21 14 8 13 22
273 280 276 274 288 297 323 336 348 340 348 356 359 353 326 328 17 72 83 89 86 96 95 107 108 90 101 122 134 138 139 143 147 166 122 94 80 71 65 58 48 40 33 34 35 34 39 34 29
269 270 271 265 276 294 305 309 338 353 347 332 16 345 317 322 42 80 76 67 63 64 76 69 45 8 349 330 279 218 223 238 243 245 88 52 31 51 62 64 60 54 52 51 52 45 41 38 35
275 269 263 268 261 282 279 285 315 331 312 339 320 329 330 10 77 74 62 52 50 55 70 82 77 54 26 10 55 79 79 107 91 8 71 81 91 98 100 99 95 83 69 65 59 49 40 35 33
281 265 255 263 262 278 268 276 289 307 325 310 310 322 327 75 73 74 55 37 47 60 89 87 88 82 68 57 68 89 103 101 108 110 109 95 90 110 115 115 110 90 73 63 54 46 37 29 24
279 268 263 267 266 266 264 266 285 298 304 293 306 313 8 73 81 85 83 80 84 97 101 95 93 96 76 68 86 98 103 109 105 109 106 97 93 89 84 99 113 96 69 49 34 27 23 17 12
280 268 266 269 267 263 262 267 277 294 287 291 303 325 21 30 72 88 91 75 112 102 59 104 101 92 84 78 67 72 80 93 97 98 98 98 79 70 45 29 25 22 18 11 8 4 2 360 359
271 271 269 272 271 266 260 269 274 279 291 292 296 329 13 10 53 94 105 109 105 55 109 90 90 71 85 65 69 64 51 58 59 84 76 40 33 22 10 359 357 352 352 346 348 347 348 348 348
268 272 274 277 279 271 268 272 276 272 287 293 294 293 302 311 321 322 310 298 301 315 331 31 3 13 16 349 348 344 346 347 352 351 352 349 343 336 340 334 333 330 334 332 330 333 334 336 338
272 272 273 274 275 274 271 274 276 279 285 287 282 282 287 295 300 304 298 301 305 307 307 312 312 302 314 308 311 319 324 324 327 328 324 322 325 325 325 325 322 322 322 324 323 324 326 326 330
266 269 271 272 272 272 274 274 271 283 283 280 279 279 283 288 291 296 300 299 304 304 301 301 307 308 303 301 305 310 313 316 316 318 319 318 316 314 315 317 317 316 318 317 321 322 322 323 325
262 268 263 271 270 273 273 268 268 276 276 273 276 278 280 286 289 290 291 294 297 299 298 298 302 303 300 300 304 306 308 309 309 310 312 310 307 304 309 308 309 311 313 314 313 314 317 317 318
265 261 262 268 269 274 272 272 271 275 275 270 272 276 280 282 284 288 290 296 299 298 296 296 300 302 301 302 302 302 304 305 306 308 308 307 304 302 300 303 307 309 311 310 309 309 310 314 317
259 263 266 267 273 270 271 270 267 276 278 274 273 275 279 281 283 287 291 295 295 298 296 296 296 297 300 301 303 305 305 306 307 308 308 309 307 303 300 302 305 309 309 310 310 304 305 307 311
265 265 267 272 273 274 272 272 266 273 276 274 275 277 280 283 288 292 294 294 294 295 293 290 290 293 296 298 299 301 302 303 304 305 306 307 307 306 303 302 304 306 306 306 307 313 309 308 310
263 264 266 272 274 275 274 271 272 271 276 277 277 279 282 286 290 293 295 296 295 293 293 291 288 290 293 296 299 301 302 301 302 304 306 307 307 306 303 302 303 304 306 308 309 310 313 312 312
261 263 267 270 277 278 279 274 272 273 278 280 281 282 286 289 291 290 288 291 293 292 291 290 288 289 291 296 299 301 302 301 302 304 305 308 311 311 307 305 305 305 306 306 308 309 309 309 312
261 268 269 271 274 269 281 272 275 277 277 282 285 286 287 290 291 291 292 290 288 289 290 290 289 289 292 296 298 300 300 300 303 305 307 308 310 311 312 311 310 309 308 307 311 313 311 312 309
264 272 272 271 272 273 272 274 275 281 281 285 290 290 292 295 296 295 294 292 292 290 290 287 287 289 292 297 300 300 300 302 304 306 306 308 311 313 314 315 313 312 312 311 310 312 312 312 312
272 270 275 276 274 268 269 271 276 279 285 291 295 302 303 303 303 303 301 298 290 291 294 293 289 289 294 297 300 301 301 302 303 304 305 307 309 311 313 314 314 313 313 312 314 314 314 314 314
264 261 266 267 267 268 276 270 272 284 288 293 295 300 303 304 306 307 309 303 297 291 294 295 292 292 297 300 301 302 301 302 302 303 304 305 305 307 310 312 312 313 315 315 317 316 316 315 314
261 261 263 266 266 271 276 271 277 288 291 294 297 301 305 308 310 306 309 309 302 297 296 296 296 296 299 300 301 303 304 303 304 304 305 304 305 306 310 311 312 312 313 312 313 312 314 316 316
267 259 269 274 275 273 273 278 282 286 288 295 299 303 307 310 312 314 311 310 305 300 297 296 297 299 300 301 301 302 303 303 304 305 306 305 306 307 309 310 309 311 312 312 313 314 316 319 320
269 273 268 267 270 270 273 276 278 288 292 299 301 309 308 312 315 317 317 315 310 305 301 299 298 298 299 299 299 300 302 303 304 305 305 305 307 307 307 308 309 310 312 313 315 317 320 319 320
268 269 273 275 271 274 275 276 289 293 297 301 307 312 310 312 314 315 316 314 310 305 300 298 298 298 298 297 298 298 300 302 303 304 305 305 305 305 305 306 307 308 309 311 311 313 313 313 314
269 271 265 269 274 276 277 274 287 289 295 300 305 309 312 314 316 317 315 312 308 304 300 298 298 297 296 296 296 295 297 299 300 301 302 303 302 303 302 302 302 303 304 305 304 305 307 307 309